Time,TemperatureF,DewpointF,PressureIn,WindDirection,WindDirectionDegrees,WindSpeedMPH,WindSpeedGustMPH,Humidity,HourlyPrecipIn,Conditions,Clouds,dailyrainin,SoftwareType,DateUTC
2013-07-06 00:01:00,83.7,72.5,32.03,WSW,240,3.0,6.0,69,0.00,,---,0.00,VWS V14.01,2013-07-06 04:01:00,
2013-07-06 00:06:00,83.9,72.7,32.03,WSW,242,0.0,1.0,69,0.00,,---,0.00,VWS V14.01,2013-07-06 04:06:00,
2013-07-06 00:11:00,84.0,73.2,32.03,NW,306,0.0,4.0,70,0.00,,---,0.00,VWS V14.01,2013-07-06 04:11:00,
2013-07-06 00:16:00,84.1,73.3,32.03,SW,221,0.0,6.0,70,0.00,,---,0.00,VWS V14.01,2013-07-06 04:16:00,
2013-07-06 00:21:00,84.2,73.4,32.03,WSW,249,0.0,6.0,70,0.00,,---,0.00,VWS V14.01,2013-07-06 04:21:00,
2013-07-06 00:26:00,84.2,73.4,32.03,WSW,241,0.0,6.0,70,0.00,,---,0.00,VWS V14.01,2013-07-06 04:26:00,
2013-07-06 00:31:00,84.1,73.3,32.03,WSW,242,0.0,6.0,70,0.00,,---,0.00,VWS V14.01,2013-07-06 04:31:00,
2013-07-06 00:36:00,84.1,73.3,32.03,SW,229,0.0,2.0,70,0.00,,---,0.00,VWS V14.01,2013-07-06 04:36:00,
2013-07-06 00:41:00,84.0,73.2,32.03,WSW,237,1.0,3.0,70,0.00,,---,0.00,VWS V14.01,2013-07-06 04:41:00,
2013-07-06 00:46:00,83.9,73.1,32.03,SW,235,0.0,3.0,70,0.00,,---,0.00,VWS V14.01,2013-07-06 04:46:00,
2013-07-06 00:51:00,83.8,73.0,32.03,SW,221,0.0,5.0,70,0.00,,---,0.00,VWS V14.01,2013-07-06 04:51:00,
2013-07-06 00:56:00,83.9,73.1,32.03,WNW,291,0.0,5.0,70,0.00,,---,0.00,VWS V14.01,2013-07-06 04:56:00,
2013-07-06 01:01:00,83.8,73.0,32.03,West,264,0.0,5.0,70,0.00,,---,0.00,VWS V14.01,2013-07-06 05:01:00,
2013-07-06 01:06:00,83.8,73.0,32.03,West,261,0.0,2.0,70,0.00,,---,0.00,VWS V14.01,2013-07-06 05:06:00,
2013-07-06 01:11:00,83.7,72.9,32.03,SW,227,0.0,10.0,70,0.00,,---,0.00,VWS V14.01,2013-07-06 05:11:00,
2013-07-06 01:16:00,83.7,72.9,32.03,SW,215,4.0,10.0,70,0.00,,---,0.00,VWS V14.01,2013-07-06 05:16:00,
2013-07-06 01:21:00,83.7,72.9,32.03,SW,222,1.0,10.0,70,0.00,,---,0.00,VWS V14.01,2013-07-06 05:21:00,
2013-07-06 01:26:00,83.7,72.9,32.03,SW,221,0.0,10.0,70,0.00,,---,0.00,VWS V14.01,2013-07-06 05:26:00,
2013-07-06 01:31:00,83.6,72.8,32.03,West,261,0.0,10.0,70,0.00,,---,0.00,VWS V14.01,2013-07-06 05:31:00,
2013-07-06 01:36:00,83.5,72.7,32.03,WSW,241,2.0,7.0,70,0.00,,---,0.00,VWS V14.01,2013-07-06 05:36:00,
2013-07-06 01:41:00,83.4,72.6,32.03,SSW,212,0.0,7.0,70,0.00,,---,0.00,VWS V14.01,2013-07-06 05:41:00,
2013-07-06 01:46:00,83.4,72.6,32.03,WSW,256,0.0,7.0,70,0.00,,---,0.00,VWS V14.01,2013-07-06 05:46:00,
2013-07-06 01:51:00,83.3,72.5,32.03,SW,227,0.0,9.0,70,0.00,,---,0.00,VWS V14.01,2013-07-06 05:51:00,
2013-07-06 01:56:00,83.3,72.5,32.03,WSW,244,3.0,9.0,70,0.00,,---,0.00,VWS V14.01,2013-07-06 05:56:00,
2013-07-06 02:01:00,83.2,72.4,32.03,SW,225,0.0,9.0,70,0.00,,---,0.00,VWS V14.01,2013-07-06 06:01:00,
2013-07-06 02:06:00,83.1,72.3,32.03,SW,226,6.0,10.0,70,0.00,,---,0.00,VWS V14.01,2013-07-06 06:06:00,
2013-07-06 02:11:00,83.0,72.2,32.03,SSW,212,0.0,10.0,70,0.00,,---,0.00,VWS V14.01,2013-07-06 06:11:00,
2013-07-06 02:16:00,83.0,71.8,32.03,West,280,1.0,10.0,69,0.00,,---,0.00,VWS V14.01,2013-07-06 06:16:00,
2013-07-06 02:21:00,82.9,71.7,32.03,SW,222,1.0,10.0,69,0.00,,---,0.00,VWS V14.01,2013-07-06 06:21:00,
2013-07-06 02:26:00,82.9,71.7,32.03,SSW,203,0.0,10.0,69,0.00,,---,0.00,VWS V14.01,2013-07-06 06:26:00,
2013-07-06 02:31:00,82.8,71.6,32.03,West,268,3.0,10.0,69,0.00,,---,0.00,VWS V14.01,2013-07-06 06:31:00,
2013-07-06 02:36:00,82.7,71.5,32.03,SW,225,0.0,10.0,69,0.00,,---,0.00,VWS V14.01,2013-07-06 06:36:00,
2013-07-06 02:41:00,82.6,71.0,32.03,WSW,254,2.0,10.0,68,0.00,,---,0.00,VWS V14.01,2013-07-06 06:41:00,
2013-07-06 02:46:00,82.6,71.0,32.03,SW,236,0.0,10.0,68,0.00,,---,0.00,VWS V14.01,2013-07-06 06:46:00,
2013-07-06 02:51:00,82.5,70.9,32.03,South,190,0.0,10.0,68,0.00,,---,0.00,VWS V14.01,2013-07-06 06:51:00,
2013-07-06 02:56:00,82.5,70.9,32.03,SW,226,4.0,10.0,68,0.00,,---,0.00,VWS V14.01,2013-07-06 06:56:00,
2013-07-06 03:01:00,82.4,70.8,32.03,WSW,249,4.0,10.0,68,0.00,,---,0.00,VWS V14.01,2013-07-06 07:01:00,
2013-07-06 03:06:00,82.3,70.7,32.03,West,271,0.0,5.0,68,0.00,,---,0.00,VWS V14.01,2013-07-06 07:06:00,
2013-07-06 03:11:00,82.2,70.2,32.03,WSW,250,2.0,6.0,67,0.00,,---,0.00,VWS V14.01,2013-07-06 07:11:00,
2013-07-06 03:16:00,82.2,70.2,32.03,SW,229,0.0,6.0,67,0.00,,---,0.00,VWS V14.01,2013-07-06 07:16:00,
2013-07-06 03:21:00,82.1,70.1,32.03,West,276,0.0,6.0,67,0.00,,---,0.00,VWS V14.01,2013-07-06 07:21:00,
2013-07-06 03:26:00,82.1,69.6,32.03,SSW,203,6.0,9.0,66,0.00,,---,0.00,VWS V14.01,2013-07-06 07:26:00,
2013-07-06 03:31:00,82.0,69.5,32.03,West,275,0.0,9.0,66,0.00,,---,0.00,VWS V14.01,2013-07-06 07:31:00,
2013-07-06 03:36:00,82.0,69.5,32.03,SSW,199,4.0,6.0,66,0.00,,---,0.00,VWS V14.01,2013-07-06 07:36:00,
2013-07-06 03:41:00,81.9,69.4,32.03,SSW,198,4.0,9.0,66,0.00,,---,0.00,VWS V14.01,2013-07-06 07:41:00,
2013-07-06 03:46:00,81.8,68.9,32.03,SSW,203,0.0,11.0,65,0.00,,---,0.00,VWS V14.01,2013-07-06 07:46:00,
2013-07-06 03:51:00,81.7,68.8,32.03,WSW,246,0.0,11.0,65,0.00,,---,0.00,VWS V14.01,2013-07-06 07:51:00,
2013-07-06 03:56:00,81.7,68.8,32.03,West,267,0.0,11.0,65,0.00,,---,0.00,VWS V14.01,2013-07-06 07:56:00,
2013-07-06 04:01:00,81.6,68.2,32.03,West,260,1.0,11.0,64,0.00,,---,0.00,VWS V14.01,2013-07-06 08:01:00,
2013-07-06 04:06:00,81.6,68.2,32.03,SW,218,0.0,10.0,64,0.00,,---,0.00,VWS V14.01,2013-07-06 08:06:00,
2013-07-06 04:11:00,81.5,68.2,32.03,SSW,207,0.0,10.0,64,0.00,,---,0.00,VWS V14.01,2013-07-06 08:11:00,
2013-07-06 04:16:00,81.4,67.6,32.03,SW,227,0.0,10.0,63,0.00,,---,0.00,VWS V14.01,2013-07-06 08:16:00,
2013-07-06 04:21:00,81.3,67.5,32.03,SSW,205,0.0,10.0,63,0.00,,---,0.00,VWS V14.01,2013-07-06 08:21:00,
2013-07-06 04:26:00,81.3,67.5,32.03,SSW,196,1.0,10.0,63,0.00,,---,0.00,VWS V14.01,2013-07-06 08:26:00,
2013-07-06 04:31:00,81.2,67.4,32.03,WNW,286,2.0,10.0,63,0.00,,---,0.00,VWS V14.01,2013-07-06 08:31:00,
2013-07-06 04:36:00,81.1,66.9,32.03,SSW,205,5.0,6.0,62,0.00,,---,0.00,VWS V14.01,2013-07-06 08:36:00,
2013-07-06 04:41:00,81.1,66.9,32.03,West,275,0.0,6.0,62,0.00,,---,0.00,VWS V14.01,2013-07-06 08:41:00,
2013-07-06 04:46:00,81.0,66.8,32.03,NW,311,0.0,6.0,62,0.00,,---,0.00,VWS V14.01,2013-07-06 08:46:00,
2013-07-06 04:51:00,81.0,66.8,32.03,SSW,209,5.0,10.0,62,0.00,,---,0.00,VWS V14.01,2013-07-06 08:51:00,
2013-07-06 04:56:00,81.0,66.3,32.03,WNW,291,0.0,10.0,61,0.00,,---,0.00,VWS V14.01,2013-07-06 08:56:00,
2013-07-06 05:01:00,81.0,66.3,32.03,SSW,208,0.0,10.0,61,0.00,,---,0.00,VWS V14.01,2013-07-06 09:01:00,
2013-07-06 05:02:00,81.0,66.3,32.03,SSW,195,1.0,10.0,61,0.00,,---,0.00,VWS V14.01,2013-07-06 09:02:00,
2013-07-06 05:06:00,80.9,66.2,32.03,SSW,198,0.0,5.0,61,0.00,,---,0.00,VWS V14.01,2013-07-06 09:06:00,
2013-07-06 05:11:00,80.9,66.2,32.03,SSW,202,1.0,5.0,61,0.00,,---,0.00,VWS V14.01,2013-07-06 09:11:00,
2013-07-06 05:16:00,80.8,66.1,32.03,SSW,200,2.0,5.0,61,0.00,,---,0.00,VWS V14.01,2013-07-06 09:16:00,
2013-07-06 05:21:00,80.7,65.5,32.03,SSW,200,2.0,7.0,60,0.00,,---,0.00,VWS V14.01,2013-07-06 09:21:00,
2013-07-06 05:26:00,80.7,65.5,32.03,WNW,302,0.0,7.0,60,0.00,,---,0.00,VWS V14.01,2013-07-06 09:26:00,
2013-07-06 05:31:00,80.7,65.5,32.03,SSW,195,1.0,7.0,60,0.00,,---,0.00,VWS V14.01,2013-07-06 09:31:00,
2013-07-06 05:36:00,80.6,65.4,32.03,West,264,0.0,5.0,60,0.00,,---,0.00,VWS V14.01,2013-07-06 09:36:00,
2013-07-06 05:41:00,80.6,65.4,32.03,West,261,0.0,5.0,60,0.00,,---,0.00,VWS V14.01,2013-07-06 09:41:00,
2013-07-06 05:46:00,80.6,65.0,32.03,South,183,2.0,5.0,59,0.00,,---,0.00,VWS V14.01,2013-07-06 09:46:00,
2013-07-06 05:51:00,80.5,64.9,32.03,SW,217,0.0,6.0,59,0.00,,---,0.00,VWS V14.01,2013-07-06 09:51:00,
2013-07-06 05:56:00,80.5,64.9,32.03,WSW,245,1.0,6.0,59,0.00,,---,0.00,VWS V14.01,2013-07-06 09:56:00,
2013-07-06 06:01:00,80.5,64.9,32.03,SW,215,0.0,6.0,59,0.00,,---,0.00,VWS V14.01,2013-07-06 10:01:00,
2013-07-06 06:06:00,80.4,64.8,32.03,SW,215,0.0,1.0,59,0.00,,---,0.00,VWS V14.01,2013-07-06 10:06:00,
2013-07-06 06:11:00,80.3,64.2,32.03,SW,215,0.0,1.0,58,0.00,,---,0.00,VWS V14.01,2013-07-06 10:11:00,
2013-07-06 06:16:00,80.1,64.0,32.03,SW,215,0.0,3.0,58,0.00,,---,0.00,VWS V14.01,2013-07-06 10:16:00,
2013-07-06 06:21:00,79.9,63.8,32.03,SW,215,0.0,3.0,58,0.00,,---,0.00,VWS V14.01,2013-07-06 10:21:00,
2013-07-06 06:26:00,79.7,63.1,32.03,SW,214,1.0,3.0,57,0.00,,---,0.00,VWS V14.01,2013-07-06 10:26:00,
2013-07-06 06:31:00,79.5,63.0,32.03,SSW,209,1.0,3.0,57,0.00,,---,0.00,VWS V14.01,2013-07-06 10:31:00,
2013-07-06 06:36:00,79.4,62.9,32.03,SSW,209,0.0,1.0,57,0.00,,---,0.00,VWS V14.01,2013-07-06 10:36:00,
2013-07-06 06:41:00,79.3,62.3,32.03,South,184,0.0,4.0,56,0.00,,---,0.00,VWS V14.01,2013-07-06 10:41:00,
2013-07-06 06:46:00,79.4,62.3,32.03,South,185,3.0,4.0,56,0.00,,---,0.00,VWS V14.01,2013-07-06 10:46:00,
2013-07-06 06:51:00,79.5,61.9,32.03,South,186,0.0,4.0,55,0.00,,---,0.00,VWS V14.01,2013-07-06 10:51:00,
2013-07-06 06:56:00,79.7,62.1,32.03,South,184,1.0,4.0,55,0.00,,---,0.00,VWS V14.01,2013-07-06 10:56:00,
2013-07-06 07:01:00,79.8,62.7,32.03,SSW,192,3.0,4.0,56,0.00,,---,0.00,VWS V14.01,2013-07-06 11:01:00,
2013-07-06 07:06:00,80.0,62.9,32.03,SSW,194,0.0,4.0,56,0.00,,---,0.00,VWS V14.01,2013-07-06 11:06:00,
2013-07-06 07:11:00,80.2,63.1,32.03,SSW,209,4.0,4.0,56,0.00,,---,0.00,VWS V14.01,2013-07-06 11:11:00,
2013-07-06 07:16:00,80.4,63.3,32.03,South,182,3.0,4.0,56,0.00,,---,0.00,VWS V14.01,2013-07-06 11:16:00,
2013-07-06 07:21:00,80.8,64.2,32.03,SSW,193,2.0,4.0,57,0.00,,---,0.00,VWS V14.01,2013-07-06 11:21:00,
2013-07-06 07:26:00,81.0,64.3,32.03,SW,214,1.0,5.0,57,0.00,,---,0.00,VWS V14.01,2013-07-06 11:26:00,
2013-07-06 07:31:00,81.4,65.2,32.03,WNW,302,0.0,5.0,58,0.00,,---,0.00,VWS V14.01,2013-07-06 11:31:00,
2013-07-06 07:36:00,81.8,66.1,32.03,WNW,283,0.0,4.0,59,0.00,,---,0.00,VWS V14.01,2013-07-06 11:36:00,
2013-07-06 07:41:00,82.1,66.8,32.03,West,265,0.0,4.0,60,0.00,,---,0.00,VWS V14.01,2013-07-06 11:41:00,
2013-07-06 07:46:00,82.5,67.7,32.03,West,279,3.0,7.0,61,0.00,,---,0.00,VWS V14.01,2013-07-06 11:46:00,
2013-07-06 07:51:00,82.8,68.5,32.03,West,275,0.0,8.0,62,0.00,,---,0.00,VWS V14.01,2013-07-06 11:51:00,
2013-07-06 07:56:00,83.1,69.2,32.03,West,260,0.0,8.0,63,0.00,,---,0.00,VWS V14.01,2013-07-06 11:56:00,
2013-07-06 08:01:00,83.4,69.5,32.03,WNW,284,3.0,8.0,63,0.00,,---,0.00,VWS V14.01,2013-07-06 12:01:00,
2013-07-06 08:06:00,83.7,70.2,32.03,West,280,4.0,5.0,64,0.00,,---,0.00,VWS V14.01,2013-07-06 12:06:00,
2013-07-06 08:11:00,83.9,70.9,32.03,SSW,202,5.0,9.0,65,0.00,,---,0.00,VWS V14.01,2013-07-06 12:11:00,
2013-07-06 08:16:00,83.9,71.3,32.03,WSW,253,5.0,9.0,66,0.00,,---,0.00,VWS V14.01,2013-07-06 12:16:00,
2013-07-06 08:21:00,84.1,71.5,32.03,SW,221,4.0,9.0,66,0.00,,---,0.00,VWS V14.01,2013-07-06 12:21:00,
2013-07-06 08:26:00,84.3,71.7,32.03,West,281,0.0,9.0,66,0.00,,---,0.00,VWS V14.01,2013-07-06 12:26:00,
2013-07-06 08:31:00,84.5,72.3,32.03,SW,228,0.0,9.0,67,0.00,,---,0.00,VWS V14.01,2013-07-06 12:31:00,
2013-07-06 08:36:00,84.8,72.6,32.03,WSW,256,4.0,6.0,67,0.00,,---,0.00,VWS V14.01,2013-07-06 12:36:00,
2013-07-06 08:41:00,84.9,72.7,32.03,WNW,288,0.0,6.0,67,0.00,,---,0.00,VWS V14.01,2013-07-06 12:41:00,
2013-07-06 08:46:00,85.3,73.1,32.03,SSW,209,1.0,6.0,67,0.00,,---,0.00,VWS V14.01,2013-07-06 12:46:00,
2013-07-06 08:51:00,85.6,73.8,32.03,SW,236,0.0,6.0,68,0.00,,---,0.00,VWS V14.01,2013-07-06 12:51:00,
2013-07-06 08:56:00,86.0,74.2,32.03,SW,219,4.0,6.0,68,0.00,,---,0.00,VWS V14.01,2013-07-06 12:56:00,
2013-07-06 09:01:00,86.2,74.8,32.03,South,179,0.0,7.0,69,0.00,,---,0.00,VWS V14.01,2013-07-06 13:01:00,
2013-07-06 09:06:00,86.3,74.9,32.03,West,260,0.0,6.0,69,0.00,,---,0.00,VWS V14.01,2013-07-06 13:06:00,
2013-07-06 09:11:00,86.7,75.3,32.03,West,274,4.0,6.0,69,0.00,,---,0.00,VWS V14.01,2013-07-06 13:11:00,
2013-07-06 09:16:00,86.8,75.8,32.03,West,279,2.0,8.0,70,0.00,,---,0.00,VWS V14.01,2013-07-06 13:16:00,
2013-07-06 09:21:00,87.1,76.1,32.03,West,259,5.0,8.0,70,0.00,,---,0.00,VWS V14.01,2013-07-06 13:21:00,
2013-07-06 09:26:00,87.4,76.4,32.03,West,271,0.0,8.0,70,0.00,,---,0.00,VWS V14.01,2013-07-06 13:26:00,
2013-07-06 09:31:00,87.8,76.8,32.03,West,270,0.0,8.0,70,0.00,,---,0.00,VWS V14.01,2013-07-06 13:31:00,
2013-07-06 09:36:00,88.2,77.2,32.03,West,275,0.0,6.0,70,0.00,,---,0.00,VWS V14.01,2013-07-06 13:36:00,
2013-07-06 09:41:00,88.6,77.6,32.03,WNW,296,0.0,6.0,70,0.00,,---,0.00,VWS V14.01,2013-07-06 13:41:00,
2013-07-06 09:46:00,88.6,77.6,32.03,SSW,200,1.0,6.0,70,0.00,,---,0.00,VWS V14.01,2013-07-06 13:46:00,
2013-07-06 09:51:00,88.7,77.7,32.03,SW,217,4.0,7.0,70,0.00,,---,0.00,VWS V14.01,2013-07-06 13:51:00,
2013-07-06 09:56:00,89.0,77.9,32.03,WSW,252,6.0,7.0,70,0.00,,---,0.00,VWS V14.01,2013-07-06 13:56:00,
2013-07-06 10:01:00,89.3,78.2,32.03,NNW,330,0.0,7.0,70,0.00,,---,0.00,VWS V14.01,2013-07-06 14:01:00,
2013-07-06 10:06:00,90.2,79.1,32.03,WNW,294,0.0,2.0,70,0.00,,---,0.00,VWS V14.01,2013-07-06 14:06:00,
2013-07-06 10:11:00,90.9,79.3,32.03,NW,313,0.0,4.0,69,0.00,,---,0.00,VWS V14.01,2013-07-06 14:11:00,
2013-07-06 10:16:00,91.1,79.5,32.03,West,275,6.0,6.0,69,0.00,,---,0.00,VWS V14.01,2013-07-06 14:16:00,
2013-07-06 10:21:00,90.7,79.1,32.03,SSW,205,0.0,6.0,69,0.00,,---,0.00,VWS V14.01,2013-07-06 14:21:00,
2013-07-06 10:26:00,91.0,79.4,32.03,SSW,209,3.0,6.0,69,0.00,,---,0.00,VWS V14.01,2013-07-06 14:26:00,
2013-07-06 10:31:00,91.4,79.8,32.03,SW,219,0.0,6.0,69,0.00,,---,0.00,VWS V14.01,2013-07-06 14:31:00,
2013-07-06 10:36:00,91.8,80.2,32.03,West,275,4.0,6.0,69,0.00,,---,0.00,VWS V14.01,2013-07-06 14:36:00,
2013-07-06 10:41:00,91.7,79.6,32.03,South,183,0.0,6.0,68,0.00,,---,0.00,VWS V14.01,2013-07-06 14:41:00,
2013-07-06 10:46:00,91.4,79.4,32.03,SSW,207,0.0,6.0,68,0.00,,---,0.00,VWS V14.01,2013-07-06 14:46:00,
2013-07-06 10:51:00,91.6,79.1,32.03,WNW,300,0.0,6.0,67,0.00,,---,0.00,VWS V14.01,2013-07-06 14:51:00,
2013-07-06 10:56:00,91.4,78.9,32.03,South,189,0.0,6.0,67,0.00,,---,0.00,VWS V14.01,2013-07-06 14:56:00,
2013-07-06 11:01:00,90.2,78.2,32.03,SSW,213,5.0,10.0,68,0.00,,---,0.00,VWS V14.01,2013-07-06 15:01:00,
2013-07-06 11:06:00,90.3,78.3,32.03,WNW,288,2.0,6.0,68,0.00,,---,0.00,VWS V14.01,2013-07-06 15:06:00,
2013-07-06 11:11:00,90.8,79.2,32.03,SSW,213,0.0,6.0,69,0.00,,---,0.00,VWS V14.01,2013-07-06 15:11:00,
2013-07-06 11:16:00,90.9,78.9,32.03,WSW,247,0.0,7.0,68,0.00,,---,0.00,VWS V14.01,2013-07-06 15:16:00,
2013-07-06 11:21:00,91.1,79.1,32.03,SSW,208,2.0,8.0,68,0.00,,---,0.00,VWS V14.01,2013-07-06 15:21:00,
2013-07-06 11:26:00,90.5,78.9,32.03,SSW,199,0.0,8.0,69,0.00,,---,0.00,VWS V14.01,2013-07-06 15:26:00,
2013-07-06 11:31:00,90.4,78.8,32.03,SSW,194,0.0,8.0,69,0.00,,---,0.00,VWS V14.01,2013-07-06 15:31:00,
2013-07-06 11:36:00,91.0,79.4,32.03,SSW,198,0.0,5.0,69,0.00,,---,0.00,VWS V14.01,2013-07-06 15:36:00,
2013-07-06 11:41:00,91.8,79.3,32.03,SW,229,0.0,5.0,67,0.00,,---,0.00,VWS V14.01,2013-07-06 15:41:00,
2013-07-06 11:46:00,91.0,79.0,32.03,WSW,239,1.0,6.0,68,0.00,,---,0.00,VWS V14.01,2013-07-06 15:46:00,
2013-07-06 11:51:00,91.0,79.4,32.03,South,186,0.0,6.0,69,0.00,,---,0.00,VWS V14.01,2013-07-06 15:51:00,
2013-07-06 11:56:00,91.5,79.4,32.03,South,185,3.0,6.0,68,0.00,,---,0.00,VWS V14.01,2013-07-06 15:56:00,
2013-07-06 12:01:00,91.0,79.0,32.03,SSW,213,1.0,7.0,68,0.00,,---,0.00,VWS V14.01,2013-07-06 16:01:00,
2013-07-06 12:06:00,91.0,79.0,32.03,SSW,209,0.0,4.0,68,0.00,,---,0.00,VWS V14.01,2013-07-06 16:06:00,
2013-07-06 12:11:00,91.0,79.0,32.03,SSW,205,0.0,10.0,68,0.00,,---,0.00,VWS V14.01,2013-07-06 16:11:00,
2013-07-06 12:16:00,91.0,79.0,32.03,SSW,198,0.0,10.0,68,0.00,,---,0.00,VWS V14.01,2013-07-06 16:16:00,
2013-07-06 12:21:00,91.7,79.6,32.03,SSW,209,0.0,10.0,68,0.00,,---,0.00,VWS V14.01,2013-07-06 16:21:00,
2013-07-06 12:26:00,91.5,79.4,32.03,SSW,209,0.0,10.0,68,0.00,,---,0.00,VWS V14.01,2013-07-06 16:26:00,
2013-07-06 12:32:00,91.4,78.9,32.03,SW,226,0.0,10.0,67,0.00,,---,0.00,VWS V14.01,2013-07-06 16:32:00,
2013-07-06 12:37:00,92.2,79.2,32.03,SSW,192,0.0,5.0,66,0.00,,---,0.00,VWS V14.01,2013-07-06 16:37:00,
2013-07-06 12:42:00,92.3,79.3,32.03,West,269,1.0,5.0,66,0.00,,---,0.00,VWS V14.01,2013-07-06 16:42:00,
2013-07-06 12:48:00,92.1,79.1,32.03,SSW,210,0.0,7.0,66,0.00,,---,0.00,VWS V14.01,2013-07-06 16:48:00,
2013-07-06 12:53:00,91.9,78.9,32.03,West,277,0.0,7.0,66,0.00,,---,0.00,VWS V14.01,2013-07-06 16:53:00,
2013-07-06 12:58:00,92.5,79.0,32.03,SSW,207,5.0,7.0,65,0.00,,---,0.00,VWS V14.01,2013-07-06 16:58:00,
2013-07-06 13:03:00,92.2,79.2,32.03,SW,233,1.0,3.0,66,0.00,,---,0.00,VWS V14.01,2013-07-06 17:03:00,
2013-07-06 13:09:00,92.4,78.9,32.03,WSW,246,2.0,8.0,65,0.00,,---,0.00,VWS V14.01,2013-07-06 17:09:00,
2013-07-06 13:14:00,92.7,77.8,32.03,WNW,286,4.0,11.0,62,0.00,,---,0.00,VWS V14.01,2013-07-06 17:14:00,
2013-07-06 13:19:00,93.4,78.9,32.03,WSW,253,1.0,11.0,63,0.00,,---,0.00,VWS V14.01,2013-07-06 17:19:00,
2013-07-06 13:25:00,93.9,77.9,32.03,SSW,199,0.0,11.0,60,0.00,,---,0.00,VWS V14.01,2013-07-06 17:25:00,
2013-07-06 13:30:00,93.7,77.7,32.03,West,268,0.0,11.0,60,0.00,,---,0.00,VWS V14.01,2013-07-06 17:30:00,
2013-07-06 13:35:00,94.5,78.0,32.03,SW,235,4.0,14.0,59,0.00,,---,0.00,VWS V14.01,2013-07-06 17:35:00,
2013-07-06 13:40:00,94.2,77.2,32.03,West,262,4.0,14.0,58,0.00,,---,0.00,VWS V14.01,2013-07-06 17:40:00,
2013-07-06 13:46:00,94.4,77.9,32.03,WSW,250,1.0,14.0,59,0.00,,---,0.00,VWS V14.01,2013-07-06 17:46:00,
2013-07-06 13:51:00,95.2,77.6,32.03,SW,233,0.0,14.0,57,0.00,,---,0.00,VWS V14.01,2013-07-06 17:51:00,
2013-07-06 13:56:00,95.6,76.9,32.03,WNW,303,6.0,14.0,55,0.00,,---,0.00,VWS V14.01,2013-07-06 17:56:00,
2013-07-06 14:01:00,95.7,77.5,32.03,SSW,197,0.0,14.0,56,0.00,,---,0.00,VWS V14.01,2013-07-06 18:01:00,
2013-07-06 14:06:00,95.4,77.2,32.03,SSW,213,4.0,12.0,56,0.00,,---,0.00,VWS V14.01,2013-07-06 18:06:00,
2013-07-06 14:11:00,95.4,77.2,32.03,NW,304,1.0,12.0,56,0.00,,---,0.00,VWS V14.01,2013-07-06 18:11:00,
2013-07-06 14:16:00,96.1,78.4,32.03,WNW,298,1.0,12.0,57,0.00,,---,0.00,VWS V14.01,2013-07-06 18:16:00,
2013-07-06 14:21:00,96.2,78.0,32.03,West,261,3.0,12.0,56,0.00,,---,0.00,VWS V14.01,2013-07-06 18:21:00,
2013-07-06 14:27:00,96.0,77.8,32.03,SW,227,1.0,12.0,56,0.00,,---,0.00,VWS V14.01,2013-07-06 18:27:00,
2013-07-06 14:32:00,96.3,78.1,32.03,West,273,4.0,4.0,56,0.00,,---,0.00,VWS V14.01,2013-07-06 18:32:00,
2013-07-06 14:37:00,95.8,77.1,32.03,West,269,3.0,11.0,55,0.00,,---,0.00,VWS V14.01,2013-07-06 18:37:00,
2013-07-06 14:43:00,96.5,78.2,32.03,WSW,245,0.0,0.0,56,0.00,,---,0.00,VWS V14.01,2013-07-06 18:43:00,
2013-07-06 14:48:00,96.9,77.5,32.03,WNW,282,0.0,11.0,54,0.00,,---,0.00,VWS V14.01,2013-07-06 18:48:00,
2013-07-06 14:53:00,97.0,77.0,32.03,SSW,196,3.0,12.0,53,0.00,,---,0.00,VWS V14.01,2013-07-06 18:53:00,
2013-07-06 14:59:00,96.2,76.9,32.03,WSW,257,5.0,12.0,54,0.00,,---,0.00,VWS V14.01,2013-07-06 18:59:00,
2013-07-06 15:04:00,96.1,77.3,32.03,WSW,242,1.0,3.0,55,0.00,,---,0.00,VWS V14.01,2013-07-06 19:04:00,
2013-07-06 15:09:00,96.5,77.7,32.03,West,263,3.0,11.0,55,0.00,,---,0.00,VWS V14.01,2013-07-06 19:09:00,
2013-07-06 15:15:00,96.0,77.8,32.03,South,184,1.0,11.0,56,0.00,,---,0.00,VWS V14.01,2013-07-06 19:15:00,
2013-07-06 15:20:00,96.9,78.1,32.03,NW,314,1.0,12.0,55,0.00,,---,0.00,VWS V14.01,2013-07-06 19:20:00,
2013-07-06 15:26:00,96.7,78.4,32.03,West,273,6.0,12.0,56,0.00,,---,0.00,VWS V14.01,2013-07-06 19:26:00,
2013-07-06 15:31:00,96.9,78.1,32.03,WNW,293,5.0,12.0,55,0.00,,---,0.00,VWS V14.01,2013-07-06 19:31:00,
2013-07-06 15:36:00,97.2,77.8,32.03,WNW,294,1.0,3.0,54,0.00,,---,0.00,VWS V14.01,2013-07-06 19:36:00,
2013-07-06 15:41:00,97.4,78.0,32.03,NW,307,1.0,4.0,54,0.00,,---,0.00,VWS V14.01,2013-07-06 19:41:00,
2013-07-06 15:46:00,97.1,77.7,32.03,West,281,2.0,11.0,54,0.00,,---,0.00,VWS V14.01,2013-07-06 19:46:00,
2013-07-06 15:51:00,97.0,78.2,32.03,West,271,3.0,11.0,55,0.00,,---,0.00,VWS V14.01,2013-07-06 19:51:00,
2013-07-06 15:56:00,97.3,78.4,32.03,WNW,285,0.0,11.0,55,0.00,,---,0.00,VWS V14.01,2013-07-06 19:56:00,
2013-07-06 16:01:00,97.7,78.2,32.03,West,271,0.0,11.0,54,0.00,,---,0.00,VWS V14.01,2013-07-06 20:01:00,
2013-07-06 16:06:00,97.4,77.4,32.03,WSW,245,0.0,8.0,53,0.00,,---,0.00,VWS V14.01,2013-07-06 20:06:00,
2013-07-06 16:12:00,97.5,77.5,32.03,WNW,291,1.0,8.0,53,0.00,,---,0.00,VWS V14.01,2013-07-06 20:12:00,
2013-07-06 16:17:00,97.6,78.2,32.03,SW,215,0.0,10.0,54,0.00,,---,0.00,VWS V14.01,2013-07-06 20:17:00,
2013-07-06 16:22:00,97.6,78.2,32.03,SW,220,3.0,10.0,54,0.00,,---,0.00,VWS V14.01,2013-07-06 20:22:00,
2013-07-06 16:27:00,97.1,77.7,32.03,West,267,0.0,10.0,54,0.00,,---,0.00,VWS V14.01,2013-07-06 20:27:00,
2013-07-06 16:33:00,97.1,78.2,32.03,SSW,192,5.0,12.0,55,0.00,,---,0.00,VWS V14.01,2013-07-06 20:33:00,
2013-07-06 16:38:00,97.0,77.6,32.03,West,274,0.0,12.0,54,0.00,,---,0.00,VWS V14.01,2013-07-06 20:38:00,
2013-07-06 16:43:00,97.2,77.8,32.03,West,273,0.0,12.0,54,0.00,,---,0.00,VWS V14.01,2013-07-06 20:43:00,
2013-07-06 16:48:00,96.2,76.9,32.03,West,268,7.0,12.0,54,0.00,,---,0.00,VWS V14.01,2013-07-06 20:48:00,
2013-07-06 16:53:00,95.8,77.1,32.03,WNW,283,2.0,12.0,55,0.00,,---,0.00,VWS V14.01,2013-07-06 20:53:00,
2013-07-06 16:58:00,95.8,77.6,32.03,West,272,0.0,12.0,56,0.00,,---,0.00,VWS V14.01,2013-07-06 20:58:00,
2013-07-06 17:03:00,95.7,77.5,32.03,SSW,205,0.0,6.0,56,0.00,,---,0.00,VWS V14.01,2013-07-06 21:03:00,
2013-07-06 17:08:00,95.6,76.9,32.03,SSW,209,5.0,11.0,55,0.00,,---,0.00,VWS V14.01,2013-07-06 21:08:00,
2013-07-06 17:13:00,95.6,76.9,32.03,WSW,250,0.0,12.0,55,0.00,,---,0.00,VWS V14.01,2013-07-06 21:13:00,
2013-07-06 17:18:00,95.7,77.5,32.03,NW,307,4.0,12.0,56,0.00,,---,0.00,VWS V14.01,2013-07-06 21:18:00,
2013-07-06 17:24:00,95.0,76.3,32.03,WSW,243,0.0,12.0,55,0.00,,---,0.00,VWS V14.01,2013-07-06 21:24:00,
2013-07-06 17:29:00,95.2,77.0,32.03,WSW,247,1.0,12.0,56,0.00,,---,0.00,VWS V14.01,2013-07-06 21:29:00,
2013-07-06 17:34:00,95.3,77.7,32.03,West,259,0.0,5.0,57,0.00,,---,0.00,VWS V14.01,2013-07-06 21:34:00,
2013-07-06 17:39:00,95.5,77.8,32.03,SSW,205,1.0,5.0,57,0.00,,---,0.00,VWS V14.01,2013-07-06 21:39:00,
2013-07-06 17:44:00,95.6,77.9,32.03,SSW,211,2.0,5.0,57,0.00,,---,0.00,VWS V14.01,2013-07-06 21:44:00,
2013-07-06 17:50:00,95.6,77.9,32.03,SSW,202,0.0,5.0,57,0.00,,---,0.00,VWS V14.01,2013-07-06 21:50:00,
2013-07-06 17:55:00,96.0,78.3,32.03,SW,226,0.0,5.0,57,0.00,,---,0.00,VWS V14.01,2013-07-06 21:55:00,
2013-07-06 18:00:00,96.2,78.5,32.03,SW,236,1.0,6.0,57,0.00,,---,0.00,VWS V14.01,2013-07-06 22:00:00,
2013-07-06 18:06:00,96.3,78.1,32.03,West,261,0.0,2.0,56,0.00,,---,0.00,VWS V14.01,2013-07-06 22:06:00,
2013-07-06 18:11:00,96.3,78.6,32.03,SW,227,0.0,3.0,57,0.00,,---,0.00,VWS V14.01,2013-07-06 22:11:00,
2013-07-06 18:16:00,96.4,78.7,32.03,WNW,284,5.0,5.0,57,0.00,,---,0.00,VWS V14.01,2013-07-06 22:16:00,
2013-07-06 18:22:00,96.0,77.8,32.03,West,271,0.0,8.0,56,0.00,,---,0.00,VWS V14.01,2013-07-06 22:22:00,
2013-07-06 18:27:00,95.7,78.0,32.03,West,274,0.0,8.0,57,0.00,,---,0.00,VWS V14.01,2013-07-06 22:27:00,
2013-07-06 18:32:00,95.4,78.3,32.03,WNW,302,4.0,8.0,58,0.00,,---,0.00,VWS V14.01,2013-07-06 22:32:00,
2013-07-06 18:37:00,95.0,77.4,32.03,West,267,0.0,4.0,57,0.00,,---,0.00,VWS V14.01,2013-07-06 22:37:00,
2013-07-06 18:43:00,94.5,77.4,32.03,West,273,3.0,5.0,58,0.00,,---,0.00,VWS V14.01,2013-07-06 22:43:00,
2013-07-06 18:48:00,94.4,77.9,32.03,West,280,1.0,5.0,59,0.00,,---,0.00,VWS V14.01,2013-07-06 22:48:00,
2013-07-06 18:53:00,94.1,77.6,32.03,WNW,303,1.0,7.0,59,0.00,,---,0.00,VWS V14.01,2013-07-06 22:53:00,
2013-07-06 18:58:00,94.0,78.0,32.03,WNW,284,2.0,7.0,60,0.00,,---,0.00,VWS V14.01,2013-07-06 22:58:00,
2013-07-06 19:03:00,93.6,77.1,32.03,SSW,211,5.0,6.0,59,0.00,,---,0.00,VWS V14.01,2013-07-06 23:03:00,
2013-07-06 19:08:00,93.2,77.3,32.03,West,261,0.0,6.0,60,0.00,,---,0.00,VWS V14.01,2013-07-06 23:08:00,
2013-07-06 19:13:00,92.9,77.5,32.03,WSW,244,0.0,6.0,61,0.00,,---,0.00,VWS V14.01,2013-07-06 23:13:00,
2013-07-06 19:19:00,92.9,77.5,32.03,West,275,0.0,6.0,61,0.00,,---,0.00,VWS V14.01,2013-07-06 23:19:00,
2013-07-06 19:24:00,92.8,77.9,32.03,West,275,1.0,6.0,62,0.00,,---,0.00,VWS V14.01,2013-07-06 23:24:00,
2013-07-06 19:29:00,92.7,77.8,32.03,West,275,0.0,6.0,62,0.00,,---,0.00,VWS V14.01,2013-07-06 23:29:00,
2013-07-06 19:34:00,92.5,77.6,32.03,West,275,0.0,1.0,62,0.00,,---,0.00,VWS V14.01,2013-07-06 23:34:00,
2013-07-06 19:40:00,92.4,77.5,32.03,West,272,0.0,2.0,62,0.00,,---,0.00,VWS V14.01,2013-07-06 23:40:00,
2013-07-06 19:45:00,92.1,77.7,32.03,West,272,1.0,2.0,63,0.00,,---,0.00,VWS V14.01,2013-07-06 23:45:00,
2013-07-06 19:50:00,91.8,77.4,32.03,West,272,0.0,2.0,63,0.00,,---,0.00,VWS V14.01,2013-07-06 23:50:00,
2013-07-06 19:55:00,91.7,77.3,32.03,West,273,1.0,2.0,63,0.00,,---,0.00,VWS V14.01,2013-07-06 23:55:00,
2013-07-06 20:00:00,91.4,77.5,32.03,West,273,0.0,2.0,64,0.00,,---,0.00,VWS V14.01,2013-07-07 00:00:00,
2013-07-06 20:05:00,91.2,77.3,32.03,West,273,0.0,1.0,64,0.00,,---,0.00,VWS V14.01,2013-07-07 00:05:00,
2013-07-06 20:10:00,90.9,77.5,32.03,West,273,0.0,1.0,65,0.00,,---,0.00,VWS V14.01,2013-07-07 00:10:00,
2013-07-06 20:15:00,90.7,77.8,32.03,West,273,0.0,1.0,66,0.00,,---,0.00,VWS V14.01,2013-07-07 00:15:00,
2013-07-06 20:20:00,90.3,77.4,32.03,West,273,0.0,1.0,66,0.00,,---,0.00,VWS V14.01,2013-07-07 00:20:00,
2013-07-06 20:25:00,90.0,77.6,32.03,West,274,0.0,1.0,67,0.00,,---,0.00,VWS V14.01,2013-07-07 00:25:00,
2013-07-06 20:30:00,89.6,77.6,32.03,West,274,0.0,1.0,68,0.00,,---,0.00,VWS V14.01,2013-07-07 00:30:00,
2013-07-06 20:36:00,89.3,77.4,32.03,West,274,0.0,0.0,68,0.00,,---,0.00,VWS V14.01,2013-07-07 00:36:00,
2013-07-06 20:41:00,88.9,77.4,32.03,West,274,0.0,0.0,69,0.00,,---,0.00,VWS V14.01,2013-07-07 00:41:00,
2013-07-06 20:46:00,88.7,77.7,32.03,West,273,0.0,0.0,70,0.00,,---,0.00,VWS V14.01,2013-07-07 00:46:00,
2013-07-06 20:52:00,88.4,77.4,32.03,West,274,0.0,0.0,70,0.00,,---,0.00,VWS V14.01,2013-07-07 00:52:00,
2013-07-06 20:57:00,88.3,77.3,32.03,West,274,0.0,0.0,70,0.00,,---,0.00,VWS V14.01,2013-07-07 00:57:00,
2013-07-06 21:02:00,88.2,77.6,32.03,West,274,0.0,0.0,71,0.00,,---,0.00,VWS V14.01,2013-07-07 01:02:00,
2013-07-06 21:07:00,88.0,77.8,32.03,West,274,0.0,0.0,72,0.00,,---,0.00,VWS V14.01,2013-07-07 01:07:00,
2013-07-06 21:12:00,87.9,77.8,32.03,West,274,0.0,0.0,72,0.00,,---,0.00,VWS V14.01,2013-07-07 01:12:00,
2013-07-06 21:17:00,87.8,77.7,32.03,West,274,0.0,0.0,72,0.00,,---,0.00,VWS V14.01,2013-07-07 01:17:00,
2013-07-06 21:22:00,87.5,76.9,32.03,West,274,0.0,0.0,71,0.00,,---,0.00,VWS V14.01,2013-07-07 01:22:00,
2013-07-06 21:27:00,87.3,77.2,32.03,West,273,0.0,0.0,72,0.00,,---,0.00,VWS V14.01,2013-07-07 01:27:00,
2013-07-06 21:32:00,87.1,77.0,32.03,West,273,0.0,0.0,72,0.00,,---,0.00,VWS V14.01,2013-07-07 01:32:00,
2013-07-06 21:38:00,86.8,77.1,32.03,West,274,0.0,0.0,73,0.00,,---,0.00,VWS V14.01,2013-07-07 01:38:00,
2013-07-06 21:43:00,86.6,76.9,32.03,West,274,0.0,1.0,73,0.00,,---,0.00,VWS V14.01,2013-07-07 01:43:00,
2013-07-06 21:49:00,86.5,77.2,32.03,West,274,0.0,1.0,74,0.00,,---,0.00,VWS V14.01,2013-07-07 01:49:00,
2013-07-06 21:54:00,86.4,77.1,32.03,West,274,0.0,1.0,74,0.00,,---,0.00,VWS V14.01,2013-07-07 01:54:00,
2013-07-06 21:59:00,86.3,77.4,32.03,West,274,0.0,1.0,75,0.00,,---,0.00,VWS V14.01,2013-07-07 01:59:00,
2013-07-06 22:04:00,86.2,77.3,32.03,West,274,0.0,0.0,75,0.00,,---,0.00,VWS V14.01,2013-07-07 02:04:00,
2013-07-06 22:09:00,86.1,77.2,32.03,West,274,0.0,0.0,75,0.00,,---,0.00,VWS V14.01,2013-07-07 02:09:00,
2013-07-06 22:14:00,86.0,77.6,32.03,West,274,0.0,0.0,76,0.00,,---,0.00,VWS V14.01,2013-07-07 02:14:00,
2013-07-06 22:20:00,85.8,77.4,32.03,West,274,0.0,0.0,76,0.00,,---,0.00,VWS V14.01,2013-07-07 02:20:00,
2013-07-06 22:25:00,85.7,77.3,32.03,West,274,0.0,0.0,76,0.00,,---,0.00,VWS V14.01,2013-07-07 02:25:00,
2013-07-06 22:30:00,85.5,77.1,32.03,West,274,0.0,0.0,76,0.00,,---,0.00,VWS V14.01,2013-07-07 02:30:00,
2013-07-06 22:35:00,85.3,76.9,32.03,West,274,0.0,0.0,76,0.00,,---,0.00,VWS V14.01,2013-07-07 02:35:00,
2013-07-06 22:40:00,85.1,77.1,32.03,West,274,0.0,0.0,77,0.00,,---,0.00,VWS V14.01,2013-07-07 02:40:00,
2013-07-06 22:45:00,84.9,76.9,32.03,West,274,0.0,0.0,77,0.00,,---,0.00,VWS V14.01,2013-07-07 02:45:00,
2013-07-06 22:50:00,84.8,77.2,32.03,West,274,0.0,0.0,78,0.00,,---,0.00,VWS V14.01,2013-07-07 02:50:00,
2013-07-06 22:55:00,84.6,77.0,32.03,West,274,0.0,0.0,78,0.00,,---,0.00,VWS V14.01,2013-07-07 02:55:00,
2013-07-06 23:00:00,84.5,76.9,32.03,West,273,0.0,0.0,78,0.00,,---,0.00,VWS V14.01,2013-07-07 03:00:00,
2013-07-06 23:05:00,84.5,76.9,32.03,West,273,0.0,0.0,78,0.00,,---,0.00,VWS V14.01,2013-07-07 03:05:00,
2013-07-06 23:11:00,84.4,76.8,32.03,West,273,0.0,0.0,78,0.00,,---,0.00,VWS V14.01,2013-07-07 03:11:00,
2013-07-06 23:16:00,84.3,76.7,32.03,West,273,0.0,0.0,78,0.00,,---,0.00,VWS V14.01,2013-07-07 03:16:00,
2013-07-06 23:21:00,84.1,76.5,32.03,West,274,0.0,1.0,78,0.00,,---,0.00,VWS V14.01,2013-07-07 03:21:00,
2013-07-06 23:26:00,84.0,76.8,32.03,West,274,0.0,1.0,79,0.00,,---,0.00,VWS V14.01,2013-07-07 03:26:00,
2013-07-06 23:31:00,83.9,76.7,32.03,West,274,0.0,1.0,79,0.00,,---,0.00,VWS V14.01,2013-07-07 03:31:00,
2013-07-06 23:36:00,83.7,76.5,32.03,West,273,0.0,0.0,79,0.00,,---,0.00,VWS V14.01,2013-07-07 03:36:00,
2013-07-06 23:41:00,83.6,76.8,32.03,West,273,0.0,0.0,80,0.00,,---,0.00,VWS V14.01,2013-07-07 03:41:00,
2013-07-06 23:47:00,83.4,76.6,32.03,West,274,0.0,0.0,80,0.00,,---,0.00,VWS V14.01,2013-07-07 03:47:00,
2013-07-06 23:52:00,83.3,76.5,32.03,West,274,0.0,0.0,80,0.00,,---,0.00,VWS V14.01,2013-07-07 03:52:00,
2013-07-06 23:57:00,83.1,76.3,32.03,West,274,0.0,0.0,80,0.00,,---,0.00,VWS V14.01,2013-07-07 03:57:00,